NOAA 7

operational
NORAD ID: 12553 Int'l Des: 1981-059 Owner: NOAA Country: US
LEOCIRCULARRETROGRADESSO
追跡 地上

NOAA 7について

説明を読み込み中...

リアルタイム位置

3D地球を読み込み中...

次回通過

高度履歴

Altitude vs Time

uPlot chart will show altitude changes over time

軌道要素

1 12553U 81059A 26071.20179012 .00000073 00000-0 57247-4 0 9996
2 12553 98.8053 139.2314 0011491 180.5718 179.5446 14.17774085311005
Epoch: Mar 12, 2026 • Age: 36 hours

現在のステータス

高度 835.7 km
速度 7.44 km/s
衛星直下点 51.48°N, 18.43°W
打ち上げ日 Jun 23, 1981
運用期間 44.7 years
タイプ weather

技術仕様

分類 Payload
質量 685.00 kg
乾燥質量 685.00 kg
総質量 1418.00 kg
長さ 3.70 m
直径 1.90 m
スパン 4.90 m
形状 Box + Pan
製造者 RCA
バスタイプ Tiros N
フェーズステータス In Orbit
所有者/国 NOAA/US

大規模コンステレーション

Loading constellations...